CW8822 Caguas PR US current weather conditions

sailwx.info

Wind from 183 at 1 knots gusting 7

Air temperature 27.8° C
Dewpoint 22.5° C

Last reported at 2017-Mar-26 17:46 UTC.
Time now 2017-Mar-26 18:51 UTC

Location: N 18°12' W 066°01'.
View on Google Maps.

See reports from other nearby stations

  
Tides and Currents Weather Stations Pressure Air Temp Water Temp Dewpoint Dewpoint Depression Visibility Wind Speed Wind Dir Waves Ship Positions
date/time (UTC)wind fromknots sea level pressurealtimeterstation pressurevisibilityair tempwater tempwave heightnotes
2017-Mar-26 17:46 183 1 gusting 7 27.8
2017-Mar-26 17:31 160 3 gusting 12 27.8
2017-Mar-26 17:16 119 1 gusting 10 27.2
2017-Mar-26 17:01 124 1 gusting 6 27.2
2017-Mar-26 16:46 130 0 gusting 8 27.2
2017-Mar-26 16:31 125 26.7
2017-Mar-26 16:16 096 1 gusting 9 26.1
2017-Mar-26 16:01 141 2 gusting 7 26.1
2017-Mar-26 15:46 138 1 gusting 11 26.7
2017-Mar-26 15:31 072 4 gusting 13 26.7
2017-Mar-26 15:16 127 3 gusting 9 27.2
2017-Mar-26 15:01 091 1 gusting 6 27.2
2017-Mar-26 14:46 147 0 gusting 10 27.2
2017-Mar-26 14:31 144 0 gusting 7 26.7
2017-Mar-26 14:16 114 0 gusting 5 26.7
2017-Mar-26 14:01 101 0 gusting 7 26.1
2017-Mar-26 13:46 169 0 gusting 7 25.6
2017-Mar-26 13:31 143 0 gusting 7 25.0
2017-Mar-26 13:16 139 25.0
2017-Mar-26 13:01 160 25.6
2017-Mar-26 12:46 161 25.6
2017-Mar-26 12:31 198 1 gusting 5 25.0
2017-Mar-26 12:16 163 0 gusting 6 24.4
2017-Mar-26 12:01 165 0 gusting 10 23.9
2017-Mar-26 11:45 187 0 gusting 6 23.3
2017-Mar-26 11:30 126 1 gusting 8 22.8
2017-Mar-26 11:15 147 0 gusting 4 22.2
2017-Mar-26 11:00 222 21.7
2017-Mar-26 10:45 222 21.7
2017-Mar-26 10:30 222 21.7
2017-Mar-26 10:15 222 21.7
2017-Mar-26 10:00 222 3 gusting 7 21.7
2017-Mar-26 09:45 234 21.7
2017-Mar-26 09:30 235 21.7
2017-Mar-26 09:15 235 21.7
2017-Mar-26 09:00 234 21.7
2017-Mar-26 08:45 235 1 gusting 6 21.1
2017-Mar-26 08:30 158 21.7
2017-Mar-26 08:15 158 21.7
2017-Mar-26 08:00 158 22.2
2017-Mar-26 07:45 158 22.2
2017-Mar-26 07:30 158 22.2
2017-Mar-26 07:15 158 22.2
2017-Mar-26 07:00 158 22.2
2017-Mar-26 06:45 158 22.2
2017-Mar-26 06:30 158 22.2
2017-Mar-26 06:15 158 22.2
2017-Mar-26 06:00 148 0 gusting 5 22.2
2017-Mar-26 05:45 140 22.8
2017-Mar-26 05:30 115 0 gusting 5 22.8
2017-Mar-26 05:15 126 22.2
2017-Mar-26 05:00 126 22.8
2017-Mar-26 04:45 136 22.8
2017-Mar-26 04:30 136 22.8
2017-Mar-26 04:15 136 22.2
2017-Mar-26 04:00 124 22.8
2017-Mar-26 03:45 123 22.8
2017-Mar-26 03:30 130 0 gusting 5 22.8
2017-Mar-26 03:14 133 0 gusting 4 22.8
2017-Mar-26 02:59 143 22.8
2017-Mar-26 02:44 138 1 gusting 6 22.8
2017-Mar-26 02:29 128 0 gusting 6 22.8
2017-Mar-26 02:14 126 1 gusting 6 22.2
2017-Mar-26 01:59 137 22.2
2017-Mar-26 01:44 084 22.2
2017-Mar-26 01:29 126 22.8
2017-Mar-26 01:14 121 22.8
2017-Mar-26 00:59 132 22.8
2017-Mar-26 00:44 123 22.8
2017-Mar-26 00:29 140 0 gusting 6 22.8
2017-Mar-26 00:14 135 22.2
2017-Mar-25 23:59 143 0 gusting 5 22.8
2017-Mar-25 23:44 149 22.2
2017-Mar-25 23:29 136 22.2
2017-Mar-25 23:14 143 22.8
2017-Mar-25 22:59 140 3 gusting 9 23.3
2017-Mar-25 22:44 136 23.3
2017-Mar-25 22:29 138 23.3
2017-Mar-25 22:14 119 23.3
2017-Mar-25 21:59 124 23.9
2017-Mar-25 21:44 124 23.9
2017-Mar-25 21:29 125 0 gusting 7 23.9
2017-Mar-25 21:14 114 1 gusting 8 23.9
2017-Mar-25 21:00 122 0 gusting 10 23.9
2017-Mar-25 20:44 126 6 gusting 10 24.4
2017-Mar-25 20:29 169 24.4
2017-Mar-25 20:14 119 0 gusting 6 25.0
2017-Mar-25 19:59 131 3 gusting 11 25.0
2017-Mar-25 19:44 111 0 gusting 11 25.6
2017-Mar-25 19:29 159 0 gusting 13 25.0
2017-Mar-25 19:14 160 3 gusting 12 25.6
2017-Mar-25 18:59 155 1 gusting 12 25.6
2017-Mar-25 18:44 189 3 gusting 8 24.4
2017-Mar-25 18:29 134 2 gusting 10 23.9
2017-Mar-25 18:14 125 4 gusting 11 23.9
2017-Mar-25 17:59 128 1 gusting 13 23.9
2017-Mar-25 17:44 170 4 gusting 13 23.9
2017-Mar-25 17:29 080 2 gusting 10 24.4
2017-Mar-25 17:14 115 2 gusting 11 25.0
2017-Mar-25 16:59 130 2 gusting 9 25.0
2017-Mar-25 16:44 164 2 gusting 9 25.0
2017-Mar-25 16:29 142 4 gusting 12 25.0
2017-Mar-25 16:15 180 0 gusting 12 25.6
2017-Mar-25 15:59 110 5 gusting 10 25.0
2017-Mar-25 15:44 144 5 gusting 10 23.9
2017-Mar-25 15:29 087 0 gusting 9 23.9
2017-Mar-25 15:14 138 3 gusting 6 23.9
2017-Mar-25 14:59 169 6 gusting 10 23.3
2017-Mar-25 14:44 147 23.9
2017-Mar-25 14:29 109 0 gusting 5 23.9
2017-Mar-25 14:14 140 23.9
2017-Mar-25 13:59 205 23.9
2017-Mar-25 13:44 132 23.9
2017-Mar-25 13:29 094 22.8
2017-Mar-25 13:14 148 22.2
2017-Mar-25 12:59 138 1 gusting 7 21.7
2017-Mar-25 12:43 174 0 gusting 6 21.7
2017-Mar-25 12:28 161 2 gusting 5 21.1
2017-Mar-25 12:13 134 1 gusting 5 20.6
2017-Mar-25 11:58 155 20.6
2017-Mar-25 11:43 093 20.6
2017-Mar-25 11:28 147 20.0
2017-Mar-25 11:13 147 20.0
2017-Mar-25 10:58 101 20.0
2017-Mar-25 10:43 121 20.0
2017-Mar-25 10:28 126 20.0
2017-Mar-25 10:13 130 20.0
2017-Mar-25 09:58 130 20.0
2017-Mar-25 09:43 130 20.0
2017-Mar-25 09:28 126 20.0
2017-Mar-25 09:13 143 19.4
2017-Mar-25 08:58 137 4 gusting 9 19.4
2017-Mar-25 08:43 192 0 gusting 9 19.4
2017-Mar-25 08:28 109 19.4
2017-Mar-25 08:13 149 20.0
2017-Mar-25 07:58 090 1 gusting 16 19.4
2017-Mar-25 07:43 091 1 gusting 9 20.0
2017-Mar-25 07:28 134 0 gusting 9 20.0
2017-Mar-25 07:13 099 20.6
2017-Mar-25 06:58 120 20.6
2017-Mar-25 06:43 089 21.1
2017-Mar-25 06:29 103 21.1
2017-Mar-25 06:13 107 21.1
2017-Mar-25 05:58 130 21.1
2017-Mar-25 05:43 112 21.7
2017-Mar-25 05:28 126 21.7
2017-Mar-25 05:13 128 21.7
2017-Mar-25 04:58 120 21.7
2017-Mar-25 04:43 119 21.7
2017-Mar-25 04:28 140 21.7
2017-Mar-25 04:13 139 21.7
2017-Mar-25 03:58 134 21.7
2017-Mar-25 03:42 138 21.7
2017-Mar-25 03:27 143 1 gusting 6 21.7
2017-Mar-25 03:12 135 21.7
2017-Mar-25 02:57 132 21.7
2017-Mar-25 02:43 141 22.2
2017-Mar-25 02:27 096 22.2
2017-Mar-25 02:12 120 22.2
2017-Mar-25 01:57 123 22.2
2017-Mar-25 01:42 123 22.2
2017-Mar-25 01:27 133 22.2
2017-Mar-25 01:12 124 22.2
2017-Mar-25 00:58 141 22.2
2017-Mar-25 00:42 100 22.8
2017-Mar-25 00:28 130 22.8
2017-Mar-25 00:12 130 22.8
2017-Mar-24 23:57 153 22.8
2017-Mar-24 23:42 153 0 gusting 7 22.8
2017-Mar-24 23:27 116 22.8
2017-Mar-24 23:12 109 22.8
2017-Mar-24 22:57 107 22.8
2017-Mar-24 22:42 105 22.8
2017-Mar-24 22:27 138 22.8
2017-Mar-24 22:12 130 22.8
2017-Mar-24 21:57 123 23.3
2017-Mar-24 21:42 118 23.3
2017-Mar-24 21:27 118 23.9
2017-Mar-24 21:12 126 23.9
2017-Mar-24 20:57 066 24.4
2017-Mar-24 20:42 066 24.4
2017-Mar-24 20:27 107 24.4
2017-Mar-24 20:12 107 24.4
2017-Mar-24 19:57 119 24.4
2017-Mar-24 19:42 121 23.9
2017-Mar-24 19:27 152 1 gusting 8 23.3
2017-Mar-24 19:12 097 0 gusting 6 23.3
2017-Mar-24 18:57 117 23.3
2017-Mar-24 18:42 129 2 gusting 7 22.8
2017-Mar-24 18:27 113 22.8
2017-Mar-24 18:12 132 3 gusting 8 22.8